Total_Precipitation_Accumulation
0.00 0.00 0.00 0.00 0.01 0.01 0.01 0.02 0.05 0.08 0.06 0.07 0.12 0.21 0.31 0.39 0.45 0.43 0.50 0.71 0.73 0.75 0.85 0.98 1.37 1.79 2.16 2.59 2.87 2.81 2.57 2.58 2.73 2.82 2.63 2.82 3.11 3.42 3.67 3.59 3.49 3.44 3.38 3.31
0.00 0.00 0.01 0.01 0.01 0.01 0.01 0.02 0.03 0.05 0.05 0.05 0.14 0.30 0.46 0.52 0.63 0.60 0.58 0.72 0.73 0.76 0.88 1.04 1.39 1.71 2.11 2.46 2.56 2.79 2.88 2.87 2.75 3.03 3.27 3.54 3.86 4.02 4.30 4.55 4.61 4.47 4.23 3.99
0.00 0.00 0.00 0.00 0.00 0.00 0.00 0.01 0.02 0.04 0.05 0.08 0.19 0.50 0.66 0.77 0.73 0.74 0.73 0.88 0.95 0.98 1.04 1.19 1.45 1.66 1.94 2.32 2.55 2.79 3.02 3.08 3.02 3.43 3.98 4.47 4.75 4.76 4.83 4.88 4.94 4.89 4.46 4.10
0.00 0.00 0.00 0.00 0.00 0.00 0.00 0.00 0.01 0.04 0.06 0.14 0.19 0.50 0.78 0.87 0.86 0.79 0.84 0.86 1.00 0.94 0.93 1.07 1.28 1.63 1.77 2.09 2.35 2.58 2.89 3.24 3.54 3.96 4.49 5.06 5.37 5.52 5.43 5.10 4.85 4.55 4.15 3.77
0.00 0.00 0.00 0.00 0.00 0.00 0.00 0.00 0.01 0.04 0.06 0.14 0.18 0.36 0.74 0.91 0.87 0.88 0.92 0.89 0.89 0.82 0.78 0.87 0.98 1.23 1.50 1.77 2.05 2.38 2.72 3.09 3.68 4.41 5.02 5.46 5.78 5.75 5.34 4.86 4.29 3.87 3.53 3.22
0.00 0.00 0.00 0.00 0.00 0.00 0.00 0.01 0.03 0.06 0.09 0.23 0.19 0.34 0.76 0.99 1.03 1.08 1.00 0.94 0.89 0.83 0.81 0.80 0.82 1.01 1.21 1.42 1.71 2.09 2.53 2.85 3.39 4.05 4.67 5.05 5.32 5.24 4.85 4.23 3.71 3.33 2.97 2.67
0.01 0.01 0.01 0.00 0.00 0.00 0.00 0.02 0.11 0.23 0.25 0.26 0.22 0.39 0.82 0.99 1.06 1.12 1.09 1.08 1.01 0.88 0.86 0.84 0.80 0.86 1.00 1.18 1.40 1.68 2.09 2.57 2.94 3.33 3.87 4.04 4.09 3.92 3.54 3.25 3.02 2.64 2.30 2.01
0.07 0.05 0.03 0.01 0.01 0.01 0.01 0.02 0.14 0.26 0.30 0.36 0.42 0.68 1.08 1.07 1.12 1.14 1.12 1.05 1.00 0.93 0.83 0.83 0.79 0.84 0.99 1.14 1.34 1.50 1.76 2.14 2.45 2.59 2.77 2.77 2.69 2.62 2.48 2.29 2.06 1.82 1.60 1.46
0.11 0.11 0.04 0.01 0.01 0.01 0.01 0.02 0.06 0.11 0.17 0.31 0.60 0.94 1.32 1.44 1.32 1.21 1.17 1.05 0.96 0.90 0.84 0.84 0.80 0.83 0.96 1.05 1.22 1.30 1.33 1.50 1.61 1.68 1.75 1.83 1.83 1.73 1.71 1.64 1.46 1.32 1.16 1.04
0.08 0.07 0.04 0.02 0.02 0.01 0.02 0.02 0.05 0.10 0.22 0.40 0.63 1.03 1.33 1.58 1.44 1.19 1.08 0.97 0.89 0.87 0.84 0.82 0.78 0.78 0.78 0.83 0.93 1.05 1.08 1.10 1.11 1.14 1.13 1.21 1.22 1.15 1.07 1.00 0.94 0.83 0.73 0.64
0.07 0.07 0.06 0.04 0.05 0.05 0.04 0.04 0.06 0.10 0.14 0.31 0.66 1.14 1.31 1.68 1.66 1.40 1.19 0.99 0.95 1.00 0.94 0.86 0.84 0.76 0.70 0.69 0.70 0.77 0.84 0.90 0.94 0.95 0.93 0.92 0.91 0.83 0.77 0.74 0.68 0.59 0.52 0.48
0.08 0.13 0.13 0.09 0.09 0.07 0.07 0.08 0.10 0.21 0.22 0.24 0.61 1.35 1.44 1.55 1.66 1.64 1.48 1.24 1.09 1.03 0.96 0.87 0.80 0.74 0.65 0.62 0.58 0.60 0.64 0.64 0.72 0.76 0.81 0.80 0.73 0.68 0.65 0.61 0.57 0.53 0.47 0.44
0.10 0.22 0.36 0.38 0.35 0.19 0.12 0.10 0.11 0.14 0.20 0.30 0.69 1.43 1.72 1.74 1.69 1.65 1.52 1.35 1.23 1.21 1.14 0.98 0.83 0.73 0.68 0.62 0.60 0.58 0.55 0.54 0.57 0.55 0.54 0.58 0.56 0.54 0.52 0.47 0.45 0.42 0.41 0.40
0.09 0.28 0.51 0.81 0.71 0.36 0.21 0.15 0.14 0.17 0.30 0.43 0.69 1.15 1.38 1.66 1.84 1.68 1.46 1.32 1.26 1.33 1.19 1.01 0.86 0.78 0.69 0.63 0.61 0.59 0.53 0.47 0.48 0.45 0.43 0.47 0.48 0.46 0.46 0.44 0.41 0.37 0.35 0.35
0.15 0.36 0.40 0.47 0.30 0.23 0.22 0.21 0.21 0.23 0.29 0.55 0.86 1.19 1.46 1.74 1.77 1.59 1.36 1.20 1.20 1.22 1.21 1.13 0.99 0.88 0.73 0.64 0.60 0.57 0.54 0.49 0.45 0.45 0.45 0.47 0.44 0.42 0.43 0.45 0.41 0.37 0.34 0.30
0.17 0.33 0.35 0.38 0.31 0.29 0.36 0.33 0.34 0.37 0.43 0.59 0.91 1.34 1.53 1.52 1.35 1.31 1.25 1.16 1.24 1.39 1.45 1.40 1.23 1.04 0.89 0.79 0.72 0.67 0.62 0.53 0.46 0.45 0.49 0.50 0.48 0.48 0.47 0.45 0.44 0.41 0.36 0.32
0.19 0.36 0.48 0.51 0.39 0.48 0.78 0.64 0.57 0.58 0.59 0.70 0.99 1.13 1.06 1.13 1.15 1.19 1.19 1.24 1.42 1.55 1.52 1.38 1.25 1.12 1.00 0.94 0.85 0.78 0.71 0.62 0.54 0.53 0.52 0.52 0.49 0.49 0.46 0.41 0.42 0.40 0.35 0.31
0.20 0.37 0.48 0.48 0.57 0.98 1.01 0.63 0.56 0.58 0.54 0.53 0.63 0.65 0.73 0.89 1.03 1.17 1.26 1.41 1.59 1.69 1.71 1.62 1.41 1.25 1.08 0.93 0.84 0.75 0.65 0.61 0.58 0.57 0.55 0.52 0.48 0.45 0.42 0.41 0.42 0.39 0.35 0.32
0.11 0.30 0.51 0.60 0.83 1.03 0.94 0.58 0.50 0.63 0.68 0.49 0.48 0.49 0.56 0.67 0.85 1.22 1.37 1.46 1.57 1.63 1.63 1.56 1.41 1.27 1.13 0.96 0.81 0.70 0.64 0.60 0.58 0.57 0.51 0.43 0.38 0.38 0.37 0.40 0.42 0.39 0.37 0.35
0.12 0.21 0.52 0.69 1.01 1.32 1.15 0.53 0.31 0.53 0.97 0.62 0.42 0.39 0.49 0.69 0.98 1.11 1.12 1.22 1.24 1.19 1.14 1.13 1.08 1.03 0.96 0.84 0.71 0.65 0.62 0.56 0.48 0.42 0.36 0.30 0.29 0.31 0.33 0.34 0.36 0.35 0.34 0.32
0.37 0.39 0.58 0.75 1.02 1.22 0.63 0.33 0.37 0.92 1.20 0.81 0.60 0.55 0.61 0.82 0.89 0.75 0.71 0.86 0.94 0.94 0.93 0.88 0.84 0.84 0.80 0.69 0.64 0.61 0.57 0.49 0.36 0.29 0.27 0.25 0.25 0.26 0.26 0.28 0.32 0.33 0.31 0.32
0.48 0.59 0.69 0.84 1.11 1.25 0.48 0.35 0.68 0.81 0.61 0.61 0.61 0.62 0.66 0.64 0.56 0.50 0.51 0.65 0.83 0.94 0.96 0.88 0.79 0.72 0.62 0.58 0.63 0.64 0.55 0.39 0.29 0.27 0.27 0.26 0.21 0.17 0.17 0.27 0.34 0.32 0.34 0.36
0.66 0.67 0.73 0.90 1.03 0.75 0.37 0.36 0.37 0.36 0.39 0.40 0.41 0.43 0.50 0.56 0.54 0.50 0.54 0.65 0.75 0.85 0.89 0.83 0.72 0.62 0.50 0.45 0.49 0.51 0.40 0.26 0.24 0.27 0.30 0.28 0.23 0.21 0.20 0.26 0.31 0.31 0.32 0.30
0.76 0.61 0.62 0.76 0.76 0.52 0.37 0.28 0.24 0.26 0.32 0.32 0.34 0.37 0.49 0.67 0.69 0.64 0.62 0.71 0.74 0.74 0.67 0.60 0.56 0.50 0.40 0.33 0.30 0.29 0.22 0.20 0.24 0.28 0.28 0.25 0.25 0.27 0.25 0.24 0.20 0.22 0.24 0.22
0.66 0.79 0.91 0.98 0.88 0.67 0.43 0.31 0.29 0.27 0.31 0.38 0.45 0.48 0.53 0.58 0.64 0.66 0.65 0.62 0.56 0.51 0.45 0.42 0.44 0.39 0.29 0.23 0.20 0.16 0.14 0.18 0.24 0.26 0.24 0.22 0.20 0.23 0.27 0.22 0.13 0.11 0.12 0.09
0.43 0.68 1.11 1.29 0.98 0.82 0.63 0.48 0.46 0.43 0.43 0.45 0.44 0.43 0.44 0.42 0.43 0.49 0.51 0.47 0.40 0.36 0.34 0.34 0.32 0.29 0.23 0.18 0.16 0.12 0.11 0.14 0.24 0.26 0.21 0.15 0.12 0.14 0.16 0.19 0.18 0.08 0.04 0.03